Location: Wells
(51.2093°N, 2.6446°W)
Time: 06:48:18
(UTC+00:00)

ESTCUBE 1 - Visible Passes

Search period start: 11 March 2026 00:00
Search period end: 21 March 2026 00:00
Orbit: 621 x 631 km, 97.7° (Epoch: 10 March)

Date Brightness Start Highest point End Pass type
(mag) Time Alt. Az. Time Alt. Az. Time Alt. Az.
11 Mar ? 19:04:06 11° ENE 19:05:38 13° NE 19:07:34 10° NNE visible
11 Mar ? 20:41:23 76° NE 20:41:23 76° NE 20:45:33 10° NNW visible
11 Mar ? 22:18:39 13° WNW 22:18:39 13° WNW 22:20:15 10° NW visible
12 Mar ? 19:23:15 16° E 19:24:28 18° ENE 19:27:25 10° NNE visible
12 Mar ? 21:00:32 66° WNW 21:00:32 66° WNW 21:04:38 10° NNW visible
13 Mar ? 19:42:25 23° E 19:43:21 25° ENE 19:46:55 10° N visible
13 Mar ? 21:19:41 44° W 21:19:41 44° W 21:23:36 10° NNW visible
14 Mar ? 20:01:34 33° E 20:02:17 35° ENE 20:06:17 10° N visible
14 Mar ? 21:38:50 30° W 21:38:50 30° W 21:42:27 10° NNW visible
15 Mar ? 20:20:42 49° E 20:21:14 52° ENE 20:25:31 10° N visible
15 Mar ? 21:57:59 21° W 21:57:59 21° W 22:01:07 10° NW visible
16 Mar ? 19:02:49 10° E 19:04:45 13° NE 19:06:40 10° NNE visible
16 Mar ? 20:39:51 70° SE 20:40:16 79° ENE 20:44:40 10° NNW visible
16 Mar ? 22:17:07 14° W 22:17:07 14° W 22:19:24 10° NW visible
17 Mar ? 19:21:43 14° E 19:23:34 18° ENE 19:26:30 10° NNE visible
17 Mar ? 20:58:59 66° SW 20:59:20 70° WSW 21:03:43 10° NNW visible
18 Mar ? 19:40:51 20° E 19:42:25 25° ENE 19:45:59 10° N visible
18 Mar ? 21:18:07 45° WSW 21:18:27 46° W 21:22:41 10° NNW visible
19 Mar ? 19:59:59 28° ESE 20:01:19 35° ENE 20:05:19 10° N visible
19 Mar ? 21:37:15 30° WSW 21:37:36 31° W 21:41:30 10° NNW visible
20 Mar ? 20:19:06 39° ESE 20:20:16 52° ENE 20:24:33 10° N visible
20 Mar ? 21:56:23 21° W 21:56:49 21° W 22:00:09 10° NW visible
